Temp
11 11 10 10 10 10 10 10 10 10 9 9 9 9 9 9 9 9 11 12 11 11 12 13 12 11 10 11 12 11 10 10
11 10 9 9 10 10 10 10 10 10 9 9 9 9 9 9 9 10 11 12 12 11 13 12 12 10 11 11 12 11 11 10
11 9 8 9 9 10 10 10 10 10 10 9 9 9 9 9 10 10 10 11 11 12 12 12 12 11 12 11 12 12 11 12
11 10 9 9 9 9 10 10 10 10 10 9 8 9 8 9 10 10 11 11 11 11 11 11 11 11 11 11 11 12 10 11
13 11 10 9 9 9 9 10 10 10 10 9 9 9 9 9 9 10 11 11 11 10 11 11 11 11 11 11 11 11 11 10
14 12 11 10 9 9 9 9 9 10 10 9 9 9 9 8 8 10 11 11 10 10 10 11 11 10 11 11 11 11 12 11
15 13 12 11 9 9 8 8 9 9 9 9 9 8 8 8 9 9 10 10 9 10 10 10 10 11 11 11 10 10 11 11
15 14 13 12 10 9 8 8 8 9 9 9 9 9 9 9 10 11 10 10 10 9 9 10 10 11 11 11 10 11 11 11
16 15 14 12 11 10 9 9 9 8 9 9 8 9 10 9 10 10 10 10 10 10 10 10 10 11 11 11 10 10 11 10
17 15 14 13 11 11 10 10 10 9 8 10 9 9 9 9 9 10 10 11 11 11 10 10 11 11 11 11 9 9 10 9
17 16 14 13 12 11 10 10 10 10 9 9 9 9 8 9 9 9 10 10 10 10 10 11 10 11 10 9 9 9 9 9
17 16 15 13 12 12 12 11 11 10 9 9 9 9 9 9 9 9 9 9 9 9 10 10 10 10 9 9 9 9 9 10
18 17 15 14 13 12 11 11 10 10 10 10 9 9 9 9 10 10 10 10 9 9 9 9 9 9 9 9 9 9 10 11
18 17 16 15 14 13 12 13 15 12 10 10 10 10 10 11 12 11 10 9 9 9 9 9 9 10 10 9 9 10 11 11
19 18 17 16 15 14 13 12 13 12 11 11 10 12 13 12 11 11 11 11 11 11 10 9 9 9 9 9 10 12 12 11
20 19 19 18 16 15 14 13 13 13 11 11 15 15 14 12 12 12 12 11 11 9 9 10 12 11 12 11 11 11 12 12
20 20 20 19 18 16 15 14 14 15 15 17 14 12 13 15 14 13 12 12 12 11 11 10 10 10 12 12 12 10 10 10
19 19 19 19 19 20 18 19 15 16 19 16 14 12 12 12 14 13 13 12 11 10 10 10 10 10 12 12 11 10 9 9
17 18 17 17 18 18 19 16 17 19 19 16 15 15 14 12 11 11 10 10 10 10 8 8 8 8 10 10 9 9 9 9
Height
1466 1465 1466 1468 1470 1473 1475 1479 1480 1485 1489 1493 1499 1504 1510 1516 1521 1528 1533 1538 1544 1548 1551 1554 1558 1563 1567 1568 1570 1573 1576 1578
1463 1463 1463 1466 1468 1471 1474 1478 1480 1484 1488 1493 1498 1502 1509 1516 1520 1526 1531 1536 1541 1546 1548 1553 1558 1561 1564 1566 1569 1571 1573 1576
1460 1461 1462 1463 1466 1469 1473 1476 1478 1483 1487 1493 1499 1503 1508 1515 1521 1524 1529 1534 1539 1544 1547 1552 1556 1559 1562 1564 1566 1568 1571 1573
1456 1458 1459 1460 1462 1466 1469 1473 1477 1481 1486 1491 1496 1502 1508 1512 1517 1522 1526 1532 1537 1542 1546 1549 1553 1556 1559 1561 1563 1565 1567 1568
1452 1455 1456 1458 1459 1463 1467 1470 1474 1479 1483 1487 1491 1493 1500 1506 1512 1517 1522 1528 1533 1539 1543 1546 1550 1553 1555 1558 1560 1562 1564 1566
1447 1450 1453 1455 1457 1460 1464 1467 1470 1474 1479 1484 1488 1493 1499 1507 1510 1513 1519 1523 1530 1535 1539 1543 1547 1549 1551 1554 1556 1558 1559 1562
1442 1446 1450 1453 1455 1457 1461 1463 1467 1471 1476 1480 1485 1491 1496 1502 1506 1509 1514 1520 1526 1531 1535 1540 1543 1545 1547 1550 1553 1555 1554 1556
1436 1440 1443 1447 1450 1453 1455 1459 1463 1465 1469 1475 1480 1485 1490 1495 1500 1505 1509 1515 1520 1525 1531 1534 1537 1542 1544 1546 1548 1548 1548 1549
1429 1434 1440 1442 1444 1448 1452 1455 1458 1460 1464 1470 1477 1481 1484 1491 1497 1501 1505 1508 1514 1521 1525 1528 1532 1536 1538 1541 1541 1541 1541 1543
1425 1431 1434 1438 1440 1442 1445 1451 1455 1457 1460 1464 1468 1474 1479 1485 1491 1495 1499 1504 1509 1514 1518 1522 1525 1528 1530 1532 1533 1534 1535 1535
1421 1426 1429 1433 1436 1440 1443 1445 1449 1454 1456 1458 1461 1467 1473 1480 1485 1487 1491 1497 1502 1506 1510 1513 1517 1519 1522 1524 1525 1526 1527 1527
1417 1421 1426 1429 1433 1434 1437 1440 1444 1447 1450 1455 1457 1459 1463 1469 1473 1478 1482 1489 1493 1496 1500 1504 1508 1511 1514 1516 1516 1517 1517 1516
1413 1415 1420 1423 1426 1429 1430 1434 1437 1440 1444 1447 1451 1456 1458 1459 1462 1466 1472 1475 1482 1486 1490 1495 1498 1500 1503 1504 1505 1505 1505 1506
1411 1413 1413 1416 1419 1421 1423 1424 1427 1433 1437 1440 1444 1446 1449 1451 1455 1459 1464 1468 1472 1477 1481 1483 1485 1488 1491 1492 1493 1494 1495 1495
1408 1409 1410 1412 1413 1415 1417 1418 1421 1425 1428 1432 1435 1436 1439 1443 1448 1453 1456 1459 1463 1466 1468 1471 1474 1477 1480 1481 1482 1483 1484 1484
1405 1405 1406 1407 1407 1408 1410 1412 1413 1416 1421 1423 1423 1427 1431 1436 1439 1443 1447 1450 1452 1456 1460 1461 1463 1465 1467 1469 1471 1471 1472 1473
1400 1400 1400 1400 1401 1401 1402 1403 1405 1407 1409 1411 1416 1420 1422 1424 1429 1433 1437 1440 1442 1445 1447 1451 1454 1454 1456 1458 1461 1462 1462 1462
1397 1397 1396 1395 1395 1394 1394 1395 1398 1399 1401 1403 1406 1411 1413 1416 1419 1423 1426 1429 1434 1435 1438 1441 1442 1444 1445 1447 1450 1450 1451 1449
1392 1392 1390 1389 1388 1390 1389 1390 1389 1391 1394 1396 1399 1401 1404 1409 1412 1414 1417 1420 1421 1423 1427 1431 1433 1433 1434 1436 1439 1440 1438 1438
Wind_Speed
10 8 12 13 15 19 30 26 18 23 25 30 31 34 40 42 38 30 40 38 37 37 34 32 30 28 21 22 21 18 14 13
11 9 10 15 16 21 20 20 22 28 32 33 35 36 35 47 39 38 40 41 41 38 34 31 31 25 22 23 21 19 18 16
15 13 12 17 18 22 22 21 19 30 31 34 32 40 35 41 40 37 38 38 35 36 35 32 31 28 26 22 21 20 17 18
18 17 15 19 23 23 25 22 23 29 28 33 33 38 36 36 43 41 42 36 36 36 34 33 31 29 27 23 23 19 17 17
20 19 19 20 24 24 25 28 27 26 28 37 35 46 49 34 40 45 51 39 34 39 35 34 32 29 25 22 21 19 17 14
23 22 20 20 21 25 25 28 30 29 28 38 39 44 47 31 34 42 46 41 35 41 37 34 32 27 26 22 20 19 20 19
23 22 20 20 21 23 24 24 27 32 31 35 38 36 41 33 37 40 42 45 41 41 36 37 32 30 27 27 26 26 24 23
26 27 26 24 24 23 24 26 26 30 33 38 40 41 45 43 44 45 43 46 43 51 43 42 39 35 37 34 32 30 28 27
28 28 27 26 27 26 26 26 27 29 35 38 37 41 45 43 45 41 42 46 49 47 46 42 44 40 38 42 36 30 33 30
25 27 27 27 28 29 29 27 27 29 32 38 39 39 41 38 40 44 46 46 46 46 47 48 46 45 38 42 36 31 32 31
22 26 26 26 26 27 27 27 28 29 30 33 36 39 38 39 37 40 47 46 47 44 47 51 46 45 44 37 38 35 33 33
19 23 25 25 25 28 29 30 29 30 31 32 34 39 40 44 42 43 44 44 46 44 46 46 42 40 39 38 37 35 34 39
14 20 24 27 28 29 31 31 31 32 32 32 34 34 36 41 45 46 48 56 49 49 52 47 45 44 45 44 46 42 47 43
10 16 22 26 28 30 32 35 36 33 33 34 35 37 39 43 45 44 44 44 45 46 44 48 53 55 53 50 50 50 47 46
7 12 18 21 25 28 31 32 34 35 35 35 36 38 41 41 41 41 43 45 45 49 48 46 45 43 41 45 47 49 50 47
13 13 13 16 22 25 28 29 31 33 34 37 41 41 39 38 39 39 41 43 44 43 44 47 45 43 44 45 44 45 49 48
17 19 19 18 20 23 25 28 31 31 34 36 36 37 38 41 41 41 40 41 42 41 41 42 44 45 48 49 47 42 44 45
18 16 16 17 20 23 25 27 27 31 33 34 34 33 34 35 35 36 39 40 39 41 42 39 40 41 47 48 44 42 39 37
19 12 10 13 18 20 25 22 27 31 35 33 33 33 33 30 29 30 30 30 32 34 33 33 34 35 39 37 34 33 36 36
Wind_Direction
214 221 201 214 214 200 208 210 214 197 184 178 178 182 184 182 177 180 183 179 191 193 192 190 184 186 185 184 185 187 184 183
204 212 207 201 202 198 196 202 216 193 188 180 181 183 184 185 184 187 190 189 191 192 194 192 193 192 194 193 195 199 196 196
200 201 194 191 189 196 201 213 202 199 196 191 185 189 187 189 188 192 194 198 195 199 198 196 200 202 207 204 208 212 209 213
198 196 194 190 193 194 201 205 203 198 202 198 195 191 188 190 196 196 195 202 200 204 203 202 202 209 211 212 219 226 215 226
196 195 194 194 197 198 195 201 203 204 210 197 199 193 194 192 198 198 206 211 208 208 209 209 211 214 217 226 229 233 233 234
195 196 198 195 191 195 195 208 206 204 211 203 206 199 202 201 204 201 202 215 213 209 213 215 219 218 218 227 238 240 249 243
195 193 192 196 194 191 192 195 204 205 207 206 211 201 202 209 206 206 208 208 207 209 214 220 221 220 224 234 246 241 244 254
193 191 192 191 196 196 193 194 197 204 205 206 206 204 199 212 209 208 214 210 213 213 216 217 219 234 240 243 243 245 254 261
195 195 195 194 193 194 197 196 196 198 203 206 207 207 208 214 212 214 211 208 211 214 215 222 224 236 239 245 249 251 260 262
200 198 197 198 198 197 196 197 197 198 199 206 209 209 211 212 213 215 211 212 216 218 221 225 230 235 246 245 246 251 259 259
198 203 203 202 203 203 202 200 200 201 201 201 204 208 213 212 214 215 215 216 218 221 223 226 233 240 243 241 245 251 254 255
194 201 206 207 206 206 208 207 204 204 206 207 207 208 209 211 216 218 218 219 221 225 228 232 236 239 237 239 245 250 249 258
200 198 200 205 208 208 210 210 210 209 209 209 212 214 213 215 219 220 220 222 226 227 229 232 235 236 239 241 245 248 255 259
200 202 201 206 209 211 212 216 217 215 212 214 215 217 217 221 222 222 223 225 226 229 231 235 239 241 242 243 245 248 255 259
212 206 211 212 211 214 215 219 219 217 217 216 218 221 224 225 226 227 228 230 230 234 235 236 237 238 239 243 248 251 253 258
261 241 223 222 218 217 218 221 220 219 218 222 228 231 229 228 230 232 233 235 236 236 238 242 245 245 244 246 248 253 256 262
276 263 256 238 227 226 220 221 220 218 220 229 228 228 230 235 235 235 236 239 239 239 240 241 244 246 251 253 253 258 270 268
313 298 275 259 249 248 234 232 222 223 224 225 225 224 228 231 234 235 238 240 242 243 244 243 245 249 254 258 261 263 264 265
320 313 318 302 276 252 248 227 229 233 233 228 227 227 227 225 226 230 231 232 236 241 242 241 243 248 259 264 262 258 258 259